NOAA 16 DEB, 41083

Orbit data source: Space-Track

NOAA 16 DEB, 41083 is space debris in SSO originally from a launch on Thu, 21 Sep 2000 UTC launched from the Air Force Western Test Range (AFWTR). Debris objects in space refer to the collection of defunct objects orbiting the Earth. Examples of debris include non-operational satellites, rocket bodies, and fragments generated from explosions, collisions, or faulty payload assembly.

Loading next visibility...
Identifier
41083, 2000-055AS
Orbit
SSO
Country
Flag of USUS
Related business
Manufacturer
Unknown
Mission
Spacecraft
Bus & Motor
Unknown
Mass
Unknown
Launch date (UTC)
2000-09-21 (26 years ago)
Launch vehicle
Unknown
Launch site
Air Force Western Test Range (AFWTR)
Object type
Payload
Rocket body
Debris
Shape & HBR
Unknown shape, 0.2 m
Radar Cross Section
Medium (>0.1 m² and <1 m²)

Expand to show TLE details & history
Last TLE update: 2 days ago

TLE from 2 days ago
0 NOAA 16 DEB
1 41083U 00055AS  26171.17036719  .00000184  00000-0  20146-3 0  9996
2 41083  99.0012  59.0203 0203534 181.1813 178.8883 13.75354619529641
Epoch: 2026-06-20T04:05Z
TLE epoch observation values (Epoch: 2026-06-20T04:05:19.725Z)
Latitude
-0.00002°
Longitude
89.29928°
Altitude
1,133.028 km
Speed
7.212 km/s
True Right ascension
03h 56m 04s
True Declination
0° 00' 00"
Sunlit
Object was in daylight at epoch
Visualization orbit readout
Latitude
Unknown
Longitude
Unknown
Altitude
Unknown
Speed
Unknown
Apparent Right ascension
Unknown
Apparent Declination
Unknown
Sunlit
N/A
Visualization observer readout
Local Sidereal Time
21:56:55
Azimuth
Unknown
Elevation
Unknown
Doppler factor
Unknown
Orbital elements
Apogee altitude
1,127.356 km
Perigee altitude
827.925 km
Semi-major axis
7,355.777 km
Eccentricity
0.02035
Inclination
99.0012°
RAAN
59.0203°
Arg. of periapsis
181.1813°
True anomaly
178.93243°
Mean anomaly
178.8883°
Eccentric anomaly
178.91047°
Mean motion
3.44033 °/min
Orbital period
104.64 mins
BSTAR
0.00020146
Loading maneuver chart data...
Computing Atmospheric mass density...
Loading historical data...
Loading historical data...
Loading historical data...
Loading historical data...
Loading historical data...
Loading historical data...
Loading historical data...

Documentation

Showing up to 5 results
|